Weather observations for the past three days for
Hillsboro, Hillsboro Municipal Airport
Imperial (Metric)
Date Time (cdt) Wind (mph) Vis. (mi.) Weather Sky Cond. Temperature (ºF) Relative Humidity Wind Chill (°F) Heat Index (°F) Pressure Precipitation (in)
Air Dwpt 6 hour altimeter (in) sea level (mb) 1 hr 3 hr 6 hr
Max. Min.
17 05:15 S 10 10.00 Fair CLR 80.4 73.4 79% 85 29.98 0.0
17 04:55 S 12 10.00 Fair CLR 80.8 73.6 79% 86 29.97 0.0
17 04:35 S 7 10.00 Fair CLR 81.1 73.6 78% 86 29.97 0.0
17 04:15 S 10 10.00 Fair CLR 81.5 73.6 77% 87 29.97 0.0
17 03:35 S 8 10.00 Fair CLR 82.4 73.8 75% 88 29.97 0.0
17 03:15 S 8 10.00 Fair CLR 82.6 73.8 75% 89 29.96 0.0
17 02:55 S 9 10.00 Fair CLR 82.9 73.6 73% 89 29.95 0.0
17 02:35 S 12 G 16 10.00 Fair CLR 83.3 73.4 72% 90 29.94 0.0
17 02:15 S 10 10.00 Fair CLR 83.3 73 71% 89 29.94 0.0
17 01:55 S 10 10.00 Fair CLR 83.7 72.9 70% 90 29.94 0.0
17 01:35 S 9 10.00 Fair CLR 84.2 73 69% 91 29.94 0.0
17 01:15 S 8 10.00 Fair CLR 84.6 72.5 67% 91 29.93 0.0
17 00:55 S 12 10.00 Fair CLR 84.7 72.1 98.1 84.7 66% 91 29.93 0.0
17 00:35 S 12 G 17 10.00 Fair CLR 85.1 71.8 64% 91 29.93 0.0
17 00:15 S 9 10.00 Fair CLR 85.1 71.2 63% 91 29.92 0.0
16 23:55 S 9 G 16 10.00 Fair CLR 85.6 71.2 62% 91 29.91 0.0
16 23:35 S 10 10.00 Fair CLR 86 71.2 61% 92 29.92 0.0
16 23:15 S 10 G 16 10.00 Fair CLR 86.5 71.2 60% 92 29.92 0.0
16 22:55 S 10 10.00 Fair CLR 86.9 71.2 60% 93 29.91 0.0
16 22:35 SE 10 10.00 Fair CLR 87.3 71.2 59% 93 29.91 0.0
16 22:15 SE 8 10.00 Fair CLR 87.8 70.7 57% 93 29.91 0.0
16 21:55 SE 8 10.00 Fair CLR 88 68.9 53% 92 29.9 0.0
16 21:35 SE 9 10.00 Fair CLR 88.5 68 51% 92 29.9 0.0
16 21:15 SE 8 10.00 Fair CLR 89.1 68 50% 93 29.89 0.0
16 20:55 SE 7 10.00 Fair CLR 89.2 67.3 48% 93 29.88 0.0
16 20:35 SE 6 10.00 Fair CLR 90.5 65.8 44% 93 29.89 0.0
16 20:15 S 6 10.00 Fair CLR 92.1 66.4 43% 95 29.89 0.0
16 19:35 S 9 10.00 Fair CLR 96.8 66.2 37% 100 29.88 0.0
16 19:15 S 9 10.00 Fair CLR 97.5 67.1 37% 102 29.88 0.0
16 18:55 S 10 10.00 Fair CLR 98.1 66.4 99.7 92.7 36% 102 29.88 0.0
16 18:35 S 9 10.00 Fair CLR 98.6 66.6 35% 103 29.88 0.0
16 18:15 S 8 10.00 Fair CLR 98.6 66.6 35% 103 29.88 0.0
16 17:55 S 9 10.00 Fair CLR 99.5 67.5 35% 105 29.89 0.0
16 17:35 S 9 10.00 Fair CLR 99.3 67.6 36% 105 29.89 0.0
16 17:15 S 8 G 16 10.00 Fair CLR 99.7 66.9 34% 105 29.9 0.0
16 16:55 S 13 10.00 Fair CLR 99.3 67.6 36% 105 29.9 0.0
16 16:35 S 8 10.00 Fair CLR 98.8 67.6 36% 104 29.91 0.0
16 16:15 S 12 G 16 10.00 Fair CLR 99.5 67.8 36% 105 29.91 0.0
16 15:55 S 15 10.00 Fair CLR 98.6 65.8 34% 102 29.92 0.0
16 15:35 S 13 G 17 10.00 Fair CLR 98.6 67.1 36% 103 29.92 0.0
16 15:15 S 8 G 16 10.00 Fair CLR 98.2 66.7 36% 103 29.93 0.0
16 14:55 SW 9 G 16 10.00 Fair CLR 97.2 67.5 38% 102 29.94 0.0
16 14:35 SW 13 10.00 Fair CLR 96.6 67.3 38% 101 29.95 0.0
16 14:15 SW 10 10.00 Fair CLR 95.5 68.2 41% 101 29.95 0.0
16 13:55 S 13 G 17 10.00 Fair CLR 95.4 69.4 43% 101 29.96 0.0
16 13:35 SW 12 G 17 10.00 Fair CLR 94.3 69.3 44% 100 29.96 0.0
16 13:15 S 12 G 16 10.00 Fair CLR 93.7 70.3 47% 100 29.96 0.0
16 12:55 S 14 G 17 10.00 Fair CLR 92.5 70.7 93.2 77.4 49% 99 29.97 0.0
16 12:35 S 14 10.00 Fair CLR 92.1 71.4 51% 99 29.98 0.0
16 12:15 S 14 G 17 10.00 Fair CLR 91.4 71.2 52% 98 29.99 0.0
16 11:55 SW 9 G 16 10.00 Fair CLR 90.3 71.6 54% 97 29.99 0.0
16 11:35 S 8 G 16 10.00 Fair CLR 89.2 71.6 56% 96 30 0.0
16 11:15 SW 7 10.00 Fair CLR 87.8 71.2 58% 94 30 0.0
16 10:55 SW 10 G 17 10.00 Fair CLR 86.9 70.7 59% 92 30 0.0
16 10:35 S 9 10.00 Fair CLR 86.2 70.9 60% 92 30.01 0.0
16 10:15 SW 12 10.00 Fair CLR 85.3 70.7 62% 90 30.01 0.0
16 09:55 SW 12 10.00 Fair CLR 84.7 70.3 62% 89 30 0.0
16 09:35 S 14 G 18 10.00 Fair CLR 84.6 70.5 63% 89 30 0.0
16 09:15 S 14 G 17 10.00 Fair CLR 83.5 70.3 65% 88 30 0.0
16 08:55 S 12 10.00 Fair CLR 82.8 70.7 67% 87 29.99 0.0
16 08:35 S 10 10.00 Fair CLR 81.7 70.7 69% 86 29.99 0.0
16 08:15 S 12 10.00 Fair CLR 80.6 70.7 72% 84 29.99 0.0
16 07:55 S 9 10.00 Fair CLR 79.7 71.2 75% 83 29.98 0.0
16 07:15 S 9 10.00 Fair CLR 77.5 71.4 82% 79 29.97 0.0
16 06:55 S 9 10.00 Fair CLR 77.4 71.1 82.8 77.4 81% 79 29.96 0.0
16 06:35 S 10 10.00 Fair CLR 77.5 71.1 81% 79 29.96 0.0
16 06:15 S 9 10.00 Fair CLR 78.1 71.4 80% 80 29.95 0.0
16 05:55 S 9 10.00 Fair CLR 78.4 71.6 80% 81 29.95 0.0
16 05:35 S 9 10.00 Fair CLR 78.8 71.8 79% 82 29.95 0.0
16 05:15 S 8 10.00 Fair CLR 78.8 71.8 79% 82 29.94 0.0
16 04:55 S 9 10.00 Fair CLR 79 72 79% 82 29.94 0.0
16 04:35 S 8 10.00 Fair CLR 79.3 71.8 78% 83 29.93 0.0
16 04:15 S 9 10.00 Fair CLR 79.7 71.6 76% 83 29.93 0.0
16 03:55 S 9 10.00 Fair CLR 80.1 71.6 75% 84 29.93 0.0
16 03:35 S 9 10.00 Fair CLR 80.2 71.6 75% 84 29.93 0.0
16 03:15 S 9 10.00 Fair CLR 80.6 71.6 74% 85 29.93 0.0
16 02:55 S 9 G 16 10.00 Fair CLR 81 71.8 74% 85 29.93 0.0
16 02:35 S 9 10.00 Fair CLR 81.3 71.8 73% 86 29.93 0.0
16 02:15 S 8 10.00 Fair CLR 81.5 72 73% 86 29.93 0.0
16 01:55 S 8 10.00 Fair CLR 82 72.1 72% 87 29.93 0.0
16 01:35 S 8 10.00 Fair CLR 82.4 72.5 72% 88 29.93 0.0
16 01:15 S 9 10.00 Fair CLR 82.6 72.5 72% 88 29.93 0.0
16 00:55 S 9 10.00 Fair CLR 82.8 72.5 97 82.8 71% 88 29.92 0.0
16 00:35 S 10 10.00 Fair CLR 83.1 72.1 70% 89 29.92 0.0
16 00:15 S 9 10.00 Fair CLR 83.3 71.6 68% 88 29.92 0.0
15 23:55 S 9 10.00 Fair CLR 84 71.6 66% 89 29.92 0.0
15 23:35 S 9 10.00 Fair CLR 84.4 71.6 66% 90 29.92 0.0
15 23:15 SE 8 10.00 Fair CLR 85.1 71.2 63% 91 29.93 0.0
15 22:55 S 9 10.00 Fair CLR 85.5 71.6 63% 91 29.92 0.0
15 22:35 SE 10 G 17 10.00 Fair CLR 86.4 71.6 62% 92 29.92 0.0
15 22:15 SE 12 G 17 10.00 Fair CLR 87.1 71.6 60% 93 29.92 0.0
15 21:55 SE 13 G 16 10.00 Fair CLR 87.8 70.5 57% 93 29.91 0.0
15 21:35 SE 8 10.00 Fair CLR 88.2 68.5 52% 92 29.91 0.0
15 21:15 S 9 10.00 Fair CLR 88.7 68.4 51% 93 29.91 0.0
15 20:55 SE 7 10.00 Fair CLR 89.6 66.9 47% 93 29.9 0.0
15 20:35 S 7 10.00 Fair CLR 91.4 67.5 45% 95 29.9 0.0
15 20:15 S 9 10.00 Fair CLR 93 67.6 43% 97 29.9 0.0
15 19:55 S 8 10.00 Fair CLR 94.6 67.6 41% 99 29.9 0.0
15 19:35 S 9 10.00 Fair CLR 95.7 68 40% 101 29.9 0.0
15 19:15 S 10 G 16 10.00 Fair CLR 96.4 67.6 39% 101 29.9 0.0
15 18:55 S 9 G 17 10.00 Fair CLR 97 68.2 98.8 92.8 39% 102 29.91 0.0
15 18:35 S 12 10.00 Fair CLR 97.7 68.2 38% 103 29.91 0.0
15 18:15 S 12 10.00 Fair CLR 98.1 68.2 38% 104 29.91 0.0
15 17:55 S 8 10.00 Fair CLR 98.2 68.4 38% 104 29.91 0.0
15 17:35 SW 10 G 17 10.00 Fair CLR 97.9 69.1 39% 104 29.91 0.0
15 17:15 SW 10 G 18 10.00 Fair CLR 97.7 68.4 38% 103 29.92 0.0
15 16:55 S 7 G 17 10.00 Fair CLR 98.6 70 40% 106 29.93 0.0
15 16:35 S 12 G 16 10.00 Fair CLR 98.6 70.9 41% 107 29.93 0.0
15 16:15 S 10 G 17 10.00 Fair CLR 98.6 70.3 40% 106 29.94 0.0
15 15:55 S 10 10.00 Fair CLR 97.9 70.5 41% 106 29.94 0.0
15 15:35 S 10 10.00 Fair CLR 98.2 71.2 42% 107 29.95 0.0
15 15:15 S 13 G 18 10.00 Fair CLR 98.2 71.8 43% 107 29.96 0.0
15 14:55 S 10 G 18 10.00 Fair CLR 97.2 71.8 44% 106 29.96 0.0
15 14:35 SW 13 G 20 10.00 Partly Cloudy SCT050 97.7 72 44% 107 29.98 0.0
15 14:15 S 14 10.00 Fair CLR 97.3 73 46% 108 29.99 0.0
15 13:55 S 12 G 18 10.00 Partly Cloudy SCT050 97 72.9 46% 107 29.99 0.0
15 13:35 SW 9 10.00 Partly Cloudy SCT048 95.9 73 48% 106 30.01 0.0
15 13:15 S 12 G 17 10.00 Mostly Cloudy BKN046 95.2 73.4 49% 105 30.01 0.0
15 12:55 SW 9 G 17 10.00 Partly Cloudy SCT044 93 72.9 94.1 75.4 52% 102 30.02 0.0
15 12:35 S 12 G 16 10.00 Partly Cloudy SCT044 93.7 74.3 53% 105 30.02 0.0
15 12:15 SW 13 G 18 10.00 Fair CLR 92.5 73.2 53% 102 30.03 0.0
15 11:55 S 12 G 21 10.00 Fair CLR 91.9 73.4 55% 101 30.04 0.0
15 11:35 SW 12 G 18 10.00 Fair CLR 91.2 74.7 58% 102 30.04 0.0
15 11:15 S 14 G 20 10.00 Fair CLR 90 73.6 59% 99 30.05 0.0
15 10:55 S 14 G 21 10.00 Fair CLR 88.9 73.6 61% 97 30.06 0.0
15 10:35 S 14 G 18 10.00 Fair CLR 87.8 73.8 63% 96 30.05 0.0
15 10:15 SW 14 10.00 Fair CLR 86.7 74.5 67% 95 30.07 0.0
15 09:55 S 12 10.00 Fair CLR 86 74.5 69% 94 30.07 0.0
15 09:35 S 9 10.00 Fair CLR 85.1 74.5 71% 93 30.08 0.0
15 09:15 S 14 10.00 Fair CLR 83.7 74.5 74% 91 30.07 0.0
15 08:55 SW 10 10.00 Fair CLR 82.4 74.5 77% 89 30.08 0.0
15 08:35 SW 10 10.00 Fair CLR 81 78.3 92% 89 30.07 0.0
15 08:15 S 10 10.00 Fair CLR 79.7 79.3 99% 86 30.07 0.0
15 07:55 S 8 10.00 Fair CLR 78.3 78.3 100% 81 30.06 0.0
15 07:35 S 8 10.00 Fair CLR 77 77 100% 78 30.06 0.0
15 07:15 S 7 10.00 Fair CLR 76.1 76.1 100% 75 30.06 0.0
15 06:55 S 6 10.00 Fair CLR 75.4 75.4 79.7 75.4 100% 73 30.05 0.0
15 06:35 S 7 10.00 Fair CLR 75.4 75.4 100% 73 30.05 0.0
15 06:15 S 7 10.00 Fair CLR 75.6 75.6 100% 74 30.04 0.0
15 05:55 S 3 10.00 Fair CLR 75.6 75.6 100% 74 30.04 0.0
15 05:35 S 5 10.00 Fair CLR 75.4 73.9 95% 74 30.04 0.0
15 05:15 S 7 10.00 Fair CLR 75.6 73.6 94% 75 30.03 0.0
15 04:55 S 6 10.00 Fair CLR 75.4 71.2 87% 75 30.03 0.0
15 04:35 S 5 10.00 Fair CLR 75.7 70.7 84% 76 30.03 0.0
15 04:15 S 6 10.00 Fair CLR 76.1 70.9 84% 77 30.03 0.0
15 03:55 S 5 10.00 Fair CLR 76.3 70.3 82% 77 30.04 0.0
15 03:35 S 6 10.00 Fair CLR 77 70.3 80% 79 30.03 0.0
15 03:15 S 5 10.00 Fair CLR 77.7 70.7 79% 80 30.03 0.0
15 02:55 S 7 10.00 Fair CLR 77.9 70.9 79% 80 30.03 0.0
15 02:35 S 7 10.00 Fair CLR 77.9 70.9 79% 80 30.03 0.0
15 02:15 S 7 10.00 Fair CLR 77.2 70.2 79% 79 30.03 0.0
15 01:55 S 6 10.00 Fair CLR 77.4 69.8 78% 79 30.04 0.0
15 01:35 S 6 10.00 Fair CLR 78.3 70.2 76% 81 30.04 0.0
15 01:15 S 7 10.00 Fair CLR 79 70.3 75% 82 30.04 0.0
15 00:55 S 7 10.00 Fair CLR 79.7 70.7 95.5 79.7 74% 83 30.05 0.0
15 00:35 S 7 10.00 Fair CLR 80.4 70.9 73% 84 30.05 0.0
15 00:15 S 8 10.00 Fair CLR 80.8 71.4 73% 85 30.05 0.0
14 23:55 S 6 10.00 Fair CLR 81.1 71.6 73% 85 30.05 0.0
14 23:35 S 8 10.00 Fair CLR 81.5 71.6 72% 86 30.04 0.0
14 23:15 S 7 10.00 Fair CLR 82.4 71.8 70% 87 30.04 0.0
14 22:55 S 9 10.00 Fair CLR 82.6 71.6 70% 87 30.04 0.0
14 22:35 S 7 10.00 Fair CLR 83.3 70.9 66% 88 30.04 0.0
14 22:15 SE 8 10.00 Fair CLR 84 70 63% 88 30.03 0.0
14 21:55 S 7 10.00 Fair CLR 84.9 69.4 60% 89 30.03 0.0
14 21:35 S 7 10.00 Fair CLR 85.3 70 60% 90 30.03 0.0
14 21:15 SE 7 10.00 Fair CLR 86.4 69.8 58% 91 30.03 0.0
14 20:55 S 9 10.00 Fair CLR 87.8 70 56% 93 30.02 0.0
14 20:35 S 12 10.00 Fair CLR 89.1 70 53% 94 30.02 0.0
14 20:15 S 13 G 18 10.00 Fair CLR 90.7 70.3 51% 97 30.02 0.0
14 19:55 S 14 G 18 10.00 Fair CLR 92.1 71.6 51% 99 30.01 0.0
14 19:35 S 15 G 18 10.00 Fair CLR 94.1 69.3 44% 100 30.01 0.0
14 19:15 S 16 G 21 10.00 Fair CLR 94.8 67.8 41% 99 30.01 0.0
14 18:55 S 13 G 20 10.00 Fair CLR 95.5 69.4 98.4 93.2 43% 102 30.01 0.0
14 18:35 S 15 G 20 10.00 Fair CLR 96.8 68.4 40% 102 30.01 0.0
14 18:15 S 15 G 20 10.00 Fair CLR 97 67.6 38% 102 30.01 0.0
14 17:55 S 13 G 18 10.00 Fair CLR 97.2 67.3 38% 102 30.02 0.0
14 17:35 S 12 G 17 10.00 Fair CLR 97.7 67.8 38% 103 30.02 0.0
14 17:15 SW 10 G 18 10.00 Fair CLR 97.3 68.9 40% 103 30.03 0.0
14 16:55 S 10 G 18 10.00 Fair CLR 98.2 69.3 39% 105 30.04 0.0
14 16:35 SW 8 10.00 Partly Cloudy SCT065 97.9 69.8 40% 105 30.04 0.0
14 16:15 S 13 G 17 10.00 Partly Cloudy SCT060 97.5 70.3 41% 105 30.05 0.0
14 15:55 SW 8 G 17 10.00 Partly Cloudy SCT060 96.8 70 42% 104 30.05 0.0
14 15:35 S 10 10.00 Fair CLR 97.7 70.7 42% 105 30.06 0.0
14 15:15 S 8 G 16 10.00 Fair CLR 97.7 71.6 43% 106 30.07 0.0
14 14:55 S 10 10.00 Fair CLR 96.4 72.3 46% 106 30.08 0.0
14 14:35 SW 5 10.00 Fair CLR 95.9 69.8 43% 102 30.08 0.0
14 14:15 SW 9 10.00 Fair CLR 95.9 71.4 45% 104 30.09 0.0
14 13:55 SW 9 10.00 Fair CLR 95 72.3 48% 104 30.1 0.0
14 13:35 S 5 10.00 Fair CLR 94.1 72.5 50% 103 30.11 0.0
14 13:15 SW 6 10.00 Fair CLR 93.2 72.5 51% 102 30.12 0.0
14 12:55 S 10 10.00 Fair CLR 93.4 73.8 93.4 73.4 53% 103 30.13 0.0
14 12:35 W 6 G 16 10.00 Fair CLR 92.1 73.4 54% 101 30.14 0.0
14 12:15 S 9 10.00 Fair CLR 91 73.6 57% 100 30.14 0.0
14 11:55 S 12 G 17 10.00 Fair CLR 90.5 74.3 59% 100 30.15 0.0
14 11:35 S 9 10.00 Fair CLR 89.6 74.1 60% 99 30.15 0.0
14 11:15 S 8 10.00 Fair CLR 88.9 74.3 62% 98 30.15 0.0
14 10:55 S 10 10.00 Fair CLR 87.4 73.8 64% 96 30.15 0.0
14 10:35 S 9 10.00 Fair CLR 86.5 73.2 65% 94 30.16 0.0
14 10:15 SW 12 10.00 Fair CLR 85.5 73 66% 92 30.16 0.0
14 09:55 SW 9 10.00 Fair CLR 85.1 72.7 66% 92 30.16 0.0
14 09:35 S 8 10.00 Fair CLR 84 73.6 71% 91 30.16 0.0
14 09:15 S 8 10.00 Fair CLR 82.4 73.4 74% 88 30.16 0.0
14 08:55 SW 9 10.00 Fair CLR 81 73.4 78% 86 30.16 0.0
14 08:35 S 8 10.00 Fair CLR 79.9 76.6 90% 85 30.16 0.0
14 08:15 S 5 10.00 Fair CLR 78.4 77.9 98% 82 30.16 0.0
14 07:55 S 6 10.00 Fair CLR 76.8 76.8 100% 77 30.15 0.0
14 07:35 S 6 10.00 Fair CLR 75.4 75.4 100% 73 30.15 0.0
14 07:15 S 5 10.00 Fair CLR 74.3 74.3 100% 30.14 0.0
14 06:55 S 5 10.00 Fair CLR 73.4 73.4 77.4 72.9 100% 30.14 0.0
14 06:35 S 3 10.00 Fair CLR 73.4 73.4 100% 30.14 0.0
14 06:15 Calm 10.00 Fair CLR 72.9 70.5 92% 30.14 0.0
14 05:55 Calm 10.00 Fair CLR 73 70.2 91% 30.14 0.0
14 05:35 Calm 10.00 Fair CLR 73 70 90% 30.14 0.0
Date Time (cdt) Wind (mph) Vis. (mi.) Weather Sky Cond. Air Dwpt Max. Min. Relative Humidity Wind Chill (°F) Heat Index (°F) altimeter (in) sea level (mb) 1 hr 3 hr 6 hr
6 hour
Temperature (ºF) Pressure Precipitation (in)